Location: ??
(35.5090°N, 139.6783°E)
Time: 19:34:03
(UTC+00:00)

IRS-P3 - Pass Details

Date: 08 November 2025
Orbit: 810 x 816 km, 99.0° (Epoch: 08 December)

Event Time Altitude Azimuth Distance (km) Brightness Sun altitude
Rises 08:25:29 0° 159° (SSE) 3,326 7.2 -9.7°
Reaches altitude 10° 08:27:49 10° 157° (SSE) 2,398 6.5 -10.1°
Maximum altitude 08:33:06 72° 74° (ENE) 857 4.1 -11.2°
Drops below altitude 10° 08:38:25 10° 351° (N) 2,412 6.6 -12.3°
Sets 08:40:46 0° 350° (N) 3,347 7.3 -12.7°
